[Iaude] MPEC A96: 2008 VK110 [a=7.18,e=0.38,i=7.4,H=13.6]
    mpec at marsden.cfa.harvard.edu 
    mpec at marsden.cfa.harvard.edu
       
    Tue Jan  9 11:04:06 EST 2024
    
    
  
M.P.E.C. 2024-A96                               Issued 2024 January 9, 16:02 UT
     The Minor Planet Electronic Circulars contain information on unusual
         minor planets, routine data on comets and natural satellites,
         and occasional editorial announcements.  They are published
    on behalf of Division F of the International Astronomical Union by the
          Minor Planet Center, Smithsonian Astrophysical Observatory,
                          Cambridge, MA 02138, U.S.A.
			  
             Prepared using the Tamkin Foundation Computer Network
                              MPC at CFA.HARVARD.EDU
            URL https://www.minorplanetcenter.net/    ISSN 1523-6714
                                   2008 VK110                                   
Observations:
     K08VB0K* C2008 11 03.42552 04 45 17.96 +20 03 47.5          20.7 VoEA096691
     K08VB0K  C2008 11 03.44077 04 45 17.57 +20 03 47.5          20.6 VoEA096691
     K08VB0K  C2008 11 03.45603 04 45 17.16 +20 03 46.4          20.1 VoEA096691
     K08VB0K  C2008 12 01.17433 04 31 15.27 +20 05 59.5          20.2 VoEA096691
     K08VB0K  C2008 12 01.19491 04 31 14.58 +20 05 59.7          20.2 VoEA096691
     K08VB0K  C2008 12 01.21254 04 31 13.91 +20 05 59.2          20.1 VoEA096691
     K08VB0K 1C2008 12 20.23659 04 20 59.28 +20 07 55.0          19.4 VrEA096G96
     K08VB0K 1C2008 12 20.24382 04 20 59.02 +20 07 55.3          19.1 VrEA096G96
     K08VB0K 1C2008 12 20.26597 04 20 58.41 +20 07 55.5          19.6 VrEA096G96
     K08VB0K 1C2008 12 20.27844 04 20 58.02 +20 07 55.7          20.2 VrEA096G96
     K08VB0K 1C2009 01 01.37234 04 15 59.14 +20 12 20.8          20.1 VrEA096G96
     K08VB0K 1C2009 01 01.37762 04 15 59.07 +20 12 21.7          20.0 VrEA096G96
     K08VB0K 1C2009 01 01.38287 04 15 58.93 +20 12 20.7          20.2 VrEA096G96
     K08VB0K 1C2009 01 01.38817 04 15 58.82 +20 12 21.4          19.8 VrEA096G96
     K08VB0K 1C2009 02 20.13510 04 18 11.55 +21 18 13.4          20.7 VrEA096G96
     K08VB0K 1C2009 02 20.14127 04 18 11.70 +21 18 13.6          20.9 VrEA096G96
     K08VB0K 1C2009 02 20.14741 04 18 11.88 +21 18 14.5          20.9 VrEA096G96
     K08VB0K 1C2009 02 20.15355 04 18 11.98 +21 18 15.9          20.7 VrEA096G96
Observer details:
691 Steward Observatory, Kitt Peak-Spacewatch.  Observers R. S. McMillan, T.
    H. Bressi.  0.9-m f/3 reflector + CCD.
G96 Mt. Lemmon Survey.  Observers R. E. Hill, E. Beshore, S. M. Larson.
    Measurers E. C. Beshore, A. Boattini, G. J. Garradd, A. R. Gibbs, A. D.
    Grauer, R. E. Hill, R. A. Kowalski, S. M. Larson, R. H. McNaught.  1.5-m
    reflector + CCD.
Orbital elements:
2008 VK110                                                                      
Epoch 2023 Sept. 13.0 TT = JDT 2460200.5                Veres                   
M 280.48172              (2000.0)            P               Q                  
n   0.05119048     Peri.  344.08129     +0.43857445     -0.88974587             
a   7.1836187      Node    79.76287     +0.83792701     +0.35396210             
e   0.3814746      Incl.    7.38618     +0.32485502     +0.28820673             
P  19.3            H   13.68          G   0.15           U   4                  
Residuals in seconds of arc
081103 691  0.1+  0.1-    081220 G96  0.3+  0.1-    090101 G96  0.2-  0.5-
081103 691  0.2-  0.2-    081220 G96  0.3-  0.1+    090101 G96  0.2-  0.0
081103 691 (0.8-  1.5-)   081220 G96  0.3+  0.0     090220 G96  0.0   0.1+
081201 691  0.0   0.2+    081220 G96  0.0   0.1+    090220 G96  0.0   0.4-
081201 691  0.4+  0.3+    090101 G96  0.3-  0.1-    090220 G96  0.4+  0.3-
081201 691  0.3-  0.2-    090101 G96  0.3+  0.6+    090220 G96  0.3-  0.4+
Ephemeris:
2008 VK110               a,e,i = 7.18, 0.38, 7                   q = 4.4433
Date    TT    R. A. (2000) Decl.     Delta      r    Elong.  Phase     V
2023 12 10    20 13 07.4 -24 51 51   8.1961  7.5044    42.9     5.1    23.1
...
2023 12 25    20 21 50.8 -24 22 15   8.3069  7.4694    29.8     3.8    23.0
...
2024 01 02    20 26 49.8 -24 05 20   8.3462  7.4506    22.9     2.9    23.0
...
2024 01 08    20 30 40.9 -23 52 14   8.3661  7.4365    17.9     2.3    22.9
2024 01 09    20 31 19.8 -23 50 02   8.3686  7.4341    17.1     2.2    22.9
2024 01 10    20 31 58.9 -23 47 48   8.3709  7.4318    16.2     2.1    22.9
...
2024 01 16    20 35 55.6 -23 34 19   8.3794  7.4176    11.4     1.5    22.8
...
2024 01 24    20 41 15.3 -23 16 02   8.3770  7.3987     5.9     0.8    22.8
...
2024 02 08    20 51 18.0 -22 41 21   8.3305  7.3630    10.5     1.4    22.8
M. P. C. Staff               (C) Copyright 2024 MPC           M.P.E.C. 2024-A96
    
    
More information about the Iaude
mailing list